Location: Newark
(45.4422°N, 16.2769°E)
Time: 15:02:28
(UTC+00:00)

Vanguard 2 Rocket - Visible Passes

Search period start: 05 December 2019 00:00
Search period end: 15 December 2019 00:00
Orbit: 554 x 3326 km, 32.9° (Epoch: 05 December)

Date Brightness Start Highest point End Pass type
(mag) Time Alt. Az. Time Alt. Az. Time Alt. Az.
05 Dec 9.5 16:31:41 10° S 16:37:41 15° SSE 16:42:23 10° SE visible
05 Dec 9.0 18:43:58 10° SW 18:49:35 23° SSW 18:49:35 23° SSW visible
06 Dec 8.9 17:43:10 10° SW 17:51:32 24° SSE 17:53:31 22° SSE visible
06 Dec 9.8 19:57:59 10° WSW 19:59:20 14° SW 19:59:20 14° SW visible
07 Dec 9.3 16:42:28 10° SSW 16:51:38 23° SSE 16:57:26 12° ESE visible
07 Dec 9.0 18:56:56 10° SW 19:03:14 27° SSW 19:03:14 27° SSW visible
08 Dec 9.7 15:42:06 10° SSW 15:51:28 20° SSE 15:58:19 10° ESE visible
08 Dec 8.7 17:55:42 10° SW 18:05:29 31° S 18:07:08 29° SSE visible
08 Dec 9.8 20:11:36 10° WSW 20:12:57 14° WSW 20:12:57 14° WSW visible
09 Dec 9.1 16:54:26 10° SW 17:05:33 30° SSE 17:11:01 17° ESE visible
09 Dec 9.0 19:10:16 10° WSW 19:16:50 29° SSW 19:16:50 29° SSW visible
10 Dec 9.5 15:53:21 10° SSW 16:05:21 28° SSE 16:13:24 10° ESE visible
10 Dec 8.6 18:08:42 10° WSW 18:19:22 36° S 18:20:42 34° SSE visible
10 Dec 9.9 20:25:26 10° WSW 20:26:31 13° WSW 20:26:31 13° WSW visible
11 Dec 8.9 17:07:03 10° SW 17:19:26 37° S 17:24:36 21° SE visible
11 Dec 9.1 19:23:50 10° WSW 19:30:24 28° SW 19:30:24 28° SW visible
12 Dec 9.5 16:05:28 10° SW 16:19:10 35° SSE 16:27:54 10° ESE visible
12 Dec 8.6 18:22:02 10° WSW 18:33:12 38° S 18:34:17 37° S visible
12 Dec 10.1 20:39:31 10° WSW 20:40:05 11° WSW 20:40:05 11° WSW visible
13 Dec 8.9 17:20:05 10° WSW 17:33:15 41° S 17:38:09 25° SE visible
13 Dec 9.3 19:37:36 10° WSW 19:43:58 26° SW 19:43:58 26° SW visible
14 Dec 9.5 16:18:08 10° SW 16:32:58 42° S 16:42:03 10° ESE visible
14 Dec 8.7 18:35:34 10° WSW 18:46:55 38° SSW 18:47:51 37° S visible
